Date,TemperatureHighF,TemperatureAvgF,TemperatureLowF,DewpointHighF,DewpointAvgF,DewpointLowF,HumidityHigh,HumidityAvg,HumidityLow,PressureMaxIn,PressureMinIn,WindSpeedMaxMPH,WindSpeedAvgMPH,GustSpeedMaxMPH,PrecipitationSumIn
2013-4-1,82,72,66,71,65,60,95,79,57,30.03,29.96,9,3,20,0.00
2013-4-2,83,70,61,69,63,60,98,81,58,30.09,30.01,5,1,10,0.00
2013-4-3,84,72,62,68,65,60,95,80,54,30.08,29.94,7,2,17,0.04
2013-4-4,72,69,66,69,67,64,96,92,80,30.03,29.86,5,2,14,0.46
2013-4-5,72,66,61,66,62,55,97,87,67,30.00,29.81,8,3,18,0.31
2013-4-6,76,64,53,61,55,49,89,76,54,30.11,30.00,6,2,12,0.07
2013-4-7,81,69,58,64,59,56,95,72,46,30.15,30.05,5,2,13,0.00
2013-4-8,85,73,65,64,61,56,87,68,39,30.13,30.04,6,3,15,0.00
2013-4-9,84,74,64,67,64,61,94,73,51,30.15,30.06,7,2,14,0.00
2013-4-10,86,73,65,68,64,61,90,73,47,30.11,29.96,7,2,14,0.00
2013-4-11,88,77,71,72,70,64,93,80,59,29.98,29.80,6,3,17,0.00
2013-4-12,78,75,70,74,72,67,94,89,83,29.92,29.75,9,2,21,0.02
2013-4-13,87,74,67,72,67,64,97,80,58,29.98,29.88,6,2,12,0.01
2013-4-14,86,74,66,73,68,61,90,81,63,30.00,29.85,9,3,22,0.06
2013-4-15,89,75,66,72,65,61,88,72,50,30.07,29.92,5,1,11,0.06
2013-4-16,91,78,67,74,69,65,96,74,48,30.12,30.02,7,2,17,0.00
2013-4-17,87,78,67,68,64,60,93,66,42,30.13,30.01,7,2,15,0.00
2013-4-18,89,78,70,71,67,63,87,71,48,30.04,29.93,7,3,15,0.00
2013-4-19,89,79,73,73,71,68,93,76,50,30.00,29.93,7,3,24,0.00
2013-4-20,76,68,60,72,63,56,92,83,72,30.15,29.97,5,1,16,0.06
2013-4-21,80,69,60,70,63,55,94,83,65,30.15,30.03,6,2,13,0.10
2013-4-22,81,71,66,70,66,62,98,87,64,30.08,29.98,4,1,15,0.31
2013-4-23,83,72,64,68,64,59,91,75,56,30.10,30.01,4,2,13,0.16
2013-4-24,86,72,62,67,62,56,92,73,37,30.14,30.07,6,2,15,0.00
2013-4-25,86,74,63,70,66,61,98,77,55,30.20,30.10,7,2,14,0.00
2013-4-26,86,75,64,71,66,62,96,75,52,30.24,30.15,6,1,13,0.00
2013-4-27,84,76,67,71,66,63,94,74,50,30.21,30.08,7,2,14,0.00
2013-4-28,87,77,69,68,64,-100,82,68,42,30.12,29.96,8,3,16,0.00
2013-4-29,84,76,70,70,66,60,87,72,55,30.01,29.90,6,2,13,0.00
2013-4-30,89,76,66,72,69,65,96,80,53,29.99,29.90,6,2,13,0.98